owner,sensor,date,latitude,longitude,relative_humidity,qcFlag 
DISL,ioos:station:DISL:MBLA:1,2014-10-01T00:00:00Z,30.4367,-88.0117,72.62,1111122 
DISL,ioos:station:DISL:MBLA:1,2014-10-01T00:30:00Z,30.4367,-88.0117,74.55,1111122 
DISL,ioos:station:DISL:MBLA:1,2014-10-01T01:00:00Z,30.4367,-88.0117,73.99,1111122 
DISL,ioos:station:DISL:MBLA:1,2014-10-01T01:30:00Z,30.4367,-88.0117,74.71,1111122 
DISL,ioos:station:DISL:MBLA:1,2014-10-01T02:00:00Z,30.4367,-88.0117,77.52,1111122 
DISL,ioos:station:DISL:MBLA:1,2014-10-01T02:30:00Z,30.4367,-88.0117,76.54,1111122 
DISL,ioos:station:DISL:MBLA:1,2014-10-01T03:00:00Z,30.4367,-88.0117,80.8,1111122 
DISL,ioos:station:DISL:MBLA:1,2014-10-01T03:30:00Z,30.4367,-88.0117,79.45,1111122 
DISL,ioos:station:DISL:MBLA:1,2014-10-01T04:00:00Z,30.4367,-88.0117,81.1,1111122 
DISL,ioos:station:DISL:MBLA:1,2014-10-01T04:30:00Z,30.4367,-88.0117,79.79,1111122 
DISL,ioos:station:DISL:MBLA:1,2014-10-01T05:00:00Z,30.4367,-88.0117,79.52,1111122 
DISL,ioos:station:DISL:MBLA:1,2014-10-01T05:30:00Z,30.4367,-88.0117,78.98,1111122 
DISL,ioos:station:DISL:MBLA:1,2014-10-01T06:00:00Z,30.4367,-88.0117,78.47,1111122 
DISL,ioos:station:DISL:MBLA:1,2014-10-01T06:30:00Z,30.4367,-88.0117,80.4,1111122 
DISL,ioos:station:DISL:MBLA:1,2014-10-01T07:00:00Z,30.4367,-88.0117,83.5,1111122 
DISL,ioos:station:DISL:MBLA:1,2014-10-01T07:30:00Z,30.4367,-88.0117,83.4,1111122 
DISL,ioos:station:DISL:MBLA:1,2014-10-01T08:00:00Z,30.4367,-88.0117,86.5,1111122 
DISL,ioos:station:DISL:MBLA:1,2014-10-01T08:30:00Z,30.4367,-88.0117,84.1,1111122 
DISL,ioos:station:DISL:MBLA:1,2014-10-01T09:00:00Z,30.4367,-88.0117,84.3,1111122 
DISL,ioos:station:DISL:MBLA:1,2014-10-01T09:30:00Z,30.4367,-88.0117,83.9,1111122 
DISL,ioos:station:DISL:MBLA:1,2014-10-01T10:00:00Z,30.4367,-88.0117,86.3,1111122 
DISL,ioos:station:DISL:MBLA:1,2014-10-01T10:30:00Z,30.4367,-88.0117,86.1,1111122 
DISL,ioos:station:DISL:MBLA:1,2014-10-01T11:00:00Z,30.4367,-88.0117,85.7,1111122 
DISL,ioos:station:DISL:MBLA:1,2014-10-01T11:30:00Z,30.4367,-88.0117,85.6,1111122 
DISL,ioos:station:DISL:MBLA:1,2014-10-01T12:00:00Z,30.4367,-88.0117,84.2,1111122 
DISL,ioos:station:DISL:MBLA:1,2014-10-01T12:30:00Z,30.4367,-88.0117,81.0,1111122 
DISL,ioos:station:DISL:MBLA:1,2014-10-01T13:00:00Z,30.4367,-88.0117,82.7,1111122 
DISL,ioos:station:DISL:MBLA:1,2014-10-01T13:30:00Z,30.4367,-88.0117,78.85,1111122 
DISL,ioos:station:DISL:MBLA:1,2014-10-01T14:00:00Z,30.4367,-88.0117,80.9,1111122 
DISL,ioos:station:DISL:MBLA:1,2014-10-01T14:30:00Z,30.4367,-88.0117,82.0,1111122 
DISL,ioos:station:DISL:MBLA:1,2014-10-01T15:00:00Z,30.4367,-88.0117,80.0,1111122 
DISL,ioos:station:DISL:MBLA:1,2014-10-01T15:30:00Z,30.4367,-88.0117,78.77,1111122 
DISL,ioos:station:DISL:MBLA:1,2014-10-01T16:00:00Z,30.4367,-88.0117,77.05,1111122 
DISL,ioos:station:DISL:MBLA:1,2014-10-01T16:30:00Z,30.4367,-88.0117,75.04,1111122 
DISL,ioos:station:DISL:MBLA:1,2014-10-01T17:00:00Z,30.4367,-88.0117,74.28,1111122 
DISL,ioos:station:DISL:MBLA:1,2014-10-01T17:30:00Z,30.4367,-88.0117,70.59,1111122 
DISL,ioos:station:DISL:MBLA:1,2014-10-01T18:00:00Z,30.4367,-88.0117,66.86,1111122 
DISL,ioos:station:DISL:MBLA:1,2014-10-01T18:30:00Z,30.4367,-88.0117,69.57,1111122 
DISL,ioos:station:DISL:MBLA:1,2014-10-01T19:00:00Z,30.4367,-88.0117,76.65,1111122 
DISL,ioos:station:DISL:MBLA:1,2014-10-01T19:30:00Z,30.4367,-88.0117,75.66,1111122 
DISL,ioos:station:DISL:MBLA:1,2014-10-01T20:00:00Z,30.4367,-88.0117,77.49,1111122 
DISL,ioos:station:DISL:MBLA:1,2014-10-01T20:30:00Z,30.4367,-88.0117,78.51,1111122 
DISL,ioos:station:DISL:MBLA:1,2014-10-01T21:00:00Z,30.4367,-88.0117,82.9,1111122 
DISL,ioos:station:DISL:MBLA:1,2014-10-01T21:30:00Z,30.4367,-88.0117,82.6,1111122 
DISL,ioos:station:DISL:MBLA:1,2014-10-01T22:00:00Z,30.4367,-88.0117,81.0,1111122 
DISL,ioos:station:DISL:MBLA:1,2014-10-01T22:30:00Z,30.4367,-88.0117,81.0,1111122 
DISL,ioos:station:DISL:MBLA:1,2014-10-01T23:00:00Z,30.4367,-88.0117,82.2,1111122 
DISL,ioos:station:DISL:MBLA:1,2014-10-01T23:30:00Z,30.4367,-88.0117,84.1,1111122 
DISL,ioos:station:DISL:MBLA:1,2014-10-02T00:00:00Z,30.4367,-88.0117,82.4,1111122 
DISL,ioos:station:DISL:MBLA:1,2014-10-02T00:30:00Z,30.4367,-88.0117,82.5,1111122 
DISL,ioos:station:DISL:MBLA:1,2014-10-02T01:00:00Z,30.4367,-88.0117,82.9,1111122 
DISL,ioos:station:DISL:MBLA:1,2014-10-02T01:30:00Z,30.4367,-88.0117,84.3,1111122 
DISL,ioos:station:DISL:MBLA:1,2014-10-02T02:00:00Z,30.4367,-88.0117,84.8,1111122 
DISL,ioos:station:DISL:MBLA:1,2014-10-02T02:30:00Z,30.4367,-88.0117,85.7,1111122 
DISL,ioos:station:DISL:MBLA:1,2014-10-02T03:00:00Z,30.4367,-88.0117,87.2,1111122 
DISL,ioos:station:DISL:MBLA:1,2014-10-02T03:30:00Z,30.4367,-88.0117,86.6,1111122 
DISL,ioos:station:DISL:MBLA:1,2014-10-02T04:00:00Z,30.4367,-88.0117,88.8,1111122 
DISL,ioos:station:DISL:MBLA:1,2014-10-02T04:30:00Z,30.4367,-88.0117,89.4,1111122 
DISL,ioos:station:DISL:MBLA:1,2014-10-02T05:00:00Z,30.4367,-88.0117,89.4,1111122 
DISL,ioos:station:DISL:MBLA:1,2014-10-02T05:30:00Z,30.4367,-88.0117,92.9,1111122 
DISL,ioos:station:DISL:MBLA:1,2014-10-02T06:00:00Z,30.4367,-88.0117,93.6,1111122 
DISL,ioos:station:DISL:MBLA:1,2014-10-02T06:30:00Z,30.4367,-88.0117,93.9,1111122 
DISL,ioos:station:DISL:MBLA:1,2014-10-02T07:00:00Z,30.4367,-88.0117,93.4,1111122 
DISL,ioos:station:DISL:MBLA:1,2014-10-02T07:30:00Z,30.4367,-88.0117,93.6,1111122 
DISL,ioos:station:DISL:MBLA:1,2014-10-02T08:00:00Z,30.4367,-88.0117,94.1,1111122 
DISL,ioos:station:DISL:MBLA:1,2014-10-02T08:30:00Z,30.4367,-88.0117,93.3,1111122 
DISL,ioos:station:DISL:MBLA:1,2014-10-02T09:00:00Z,30.4367,-88.0117,93.3,1111122 
DISL,ioos:station:DISL:MBLA:1,2014-10-02T09:30:00Z,30.4367,-88.0117,93.2,1111122 
DISL,ioos:station:DISL:MBLA:1,2014-10-02T10:00:00Z,30.4367,-88.0117,93.1,1111122 
DISL,ioos:station:DISL:MBLA:1,2014-10-02T10:30:00Z,30.4367,-88.0117,93.1,1111122 
DISL,ioos:station:DISL:MBLA:1,2014-10-02T11:00:00Z,30.4367,-88.0117,93.0,1111122 
DISL,ioos:station:DISL:MBLA:1,2014-10-02T11:30:00Z,30.4367,-88.0117,93.7,1111122 
DISL,ioos:station:DISL:MBLA:1,2014-10-02T12:00:00Z,30.4367,-88.0117,93.6,1111122 
DISL,ioos:station:DISL:MBLA:1,2014-10-02T12:30:00Z,30.4367,-88.0117,92.7,1111122 
DISL,ioos:station:DISL:MBLA:1,2014-10-02T13:00:00Z,30.4367,-88.0117,93.0,1111122 
DISL,ioos:station:DISL:MBLA:1,2014-10-02T13:30:00Z,30.4367,-88.0117,91.6,1111122 
DISL,ioos:station:DISL:MBLA:1,2014-10-02T14:00:00Z,30.4367,-88.0117,91.6,1111122 
DISL,ioos:station:DISL:MBLA:1,2014-10-02T14:30:00Z,30.4367,-88.0117,90.2,1111122 
DISL,ioos:station:DISL:MBLA:1,2014-10-02T15:00:00Z,30.4367,-88.0117,88.9,1111122 
DISL,ioos:station:DISL:MBLA:1,2014-10-02T15:30:00Z,30.4367,-88.0117,90.3,1111122 
DISL,ioos:station:DISL:MBLA:1,2014-10-02T16:00:00Z,30.4367,-88.0117,90.4,1111122 
DISL,ioos:station:DISL:MBLA:1,2014-10-02T16:30:00Z,30.4367,-88.0117,88.5,1111122 
DISL,ioos:station:DISL:MBLA:1,2014-10-02T17:00:00Z,30.4367,-88.0117,87.4,1111122 
DISL,ioos:station:DISL:MBLA:1,2014-10-02T17:30:00Z,30.4367,-88.0117,85.4,1111122 
DISL,ioos:station:DISL:MBLA:1,2014-10-02T18:00:00Z,30.4367,-88.0117,86.6,1111122 
DISL,ioos:station:DISL:MBLA:1,2014-10-02T18:30:00Z,30.4367,-88.0117,84.4,1111122 
DISL,ioos:station:DISL:MBLA:1,2014-10-02T19:00:00Z,30.4367,-88.0117,84.4,1111122 
DISL,ioos:station:DISL:MBLA:1,2014-10-02T19:30:00Z,30.4367,-88.0117,84.7,1111122 
DISL,ioos:station:DISL:MBLA:1,2014-10-02T20:00:00Z,30.4367,-88.0117,86.3,1111122 
DISL,ioos:station:DISL:MBLA:1,2014-10-02T20:30:00Z,30.4367,-88.0117,85.0,1111122 
DISL,ioos:station:DISL:MBLA:1,2014-10-02T21:00:00Z,30.4367,-88.0117,81.7,1111122 
DISL,ioos:station:DISL:MBLA:1,2014-10-02T21:30:00Z,30.4367,-88.0117,84.9,1111122 
DISL,ioos:station:DISL:MBLA:1,2014-10-02T22:00:00Z,30.4367,-88.0117,83.2,1111122 
DISL,ioos:station:DISL:MBLA:1,2014-10-02T22:30:00Z,30.4367,-88.0117,84.8,1111122 
DISL,ioos:station:DISL:MBLA:1,2014-10-02T23:00:00Z,30.4367,-88.0117,86.5,1111122 
DISL,ioos:station:DISL:MBLA:1,2014-10-02T23:30:00Z,30.4367,-88.0117,88.8,1111122 
DISL,ioos:station:DISL:MBLA:1,2014-10-03T00:00:00Z,30.4367,-88.0117,89.9,1111122 
DISL,ioos:station:DISL:MBLA:1,2014-10-03T00:30:00Z,30.4367,-88.0117,91.1,1111122 
DISL,ioos:station:DISL:MBLA:1,2014-10-03T01:00:00Z,30.4367,-88.0117,90.4,1111122 
DISL,ioos:station:DISL:MBLA:1,2014-10-03T01:30:00Z,30.4367,-88.0117,90.6,1111122 
DISL,ioos:station:DISL:MBLA:1,2014-10-03T02:00:00Z,30.4367,-88.0117,91.6,1111122 
DISL,ioos:station:DISL:MBLA:1,2014-10-03T02:30:00Z,30.4367,-88.0117,91.6,1111122 
DISL,ioos:station:DISL:MBLA:1,2014-10-03T03:00:00Z,30.4367,-88.0117,92.4,1111122 
DISL,ioos:station:DISL:MBLA:1,2014-10-03T03:30:00Z,30.4367,-88.0117,92.1,1111122 
DISL,ioos:station:DISL:MBLA:1,2014-10-03T04:00:00Z,30.4367,-88.0117,93.4,1111122 
DISL,ioos:station:DISL:MBLA:1,2014-10-03T04:30:00Z,30.4367,-88.0117,92.7,1111122 
DISL,ioos:station:DISL:MBLA:1,2014-10-03T05:00:00Z,30.4367,-88.0117,92.7,1111122 
DISL,ioos:station:DISL:MBLA:1,2014-10-03T05:30:00Z,30.4367,-88.0117,93.1,1111122 
DISL,ioos:station:DISL:MBLA:1,2014-10-03T06:00:00Z,30.4367,-88.0117,92.8,1111122 
DISL,ioos:station:DISL:MBLA:1,2014-10-03T06:30:00Z,30.4367,-88.0117,92.6,1111122 
DISL,ioos:station:DISL:MBLA:1,2014-10-03T07:00:00Z,30.4367,-88.0117,93.4,1111122 
DISL,ioos:station:DISL:MBLA:1,2014-10-03T07:30:00Z,30.4367,-88.0117,94.6,1111122 
DISL,ioos:station:DISL:MBLA:1,2014-10-03T08:00:00Z,30.4367,-88.0117,94.9,1111122 
DISL,ioos:station:DISL:MBLA:1,2014-10-03T08:30:00Z,30.4367,-88.0117,92.0,1111122 
DISL,ioos:station:DISL:MBLA:1,2014-10-03T09:00:00Z,30.4367,-88.0117,91.6,1111122 
DISL,ioos:station:DISL:MBLA:1,2014-10-03T09:30:00Z,30.4367,-88.0117,91.6,1111122 
DISL,ioos:station:DISL:MBLA:1,2014-10-03T10:00:00Z,30.4367,-88.0117,93.9,1111122 
DISL,ioos:station:DISL:MBLA:1,2014-10-03T10:30:00Z,30.4367,-88.0117,91.8,1111122 
DISL,ioos:station:DISL:MBLA:1,2014-10-03T11:00:00Z,30.4367,-88.0117,92.5,1111122 
DISL,ioos:station:DISL:MBLA:1,2014-10-03T11:30:00Z,30.4367,-88.0117,93.0,1111122 
DISL,ioos:station:DISL:MBLA:1,2014-10-03T12:00:00Z,30.4367,-88.0117,93.4,1111122 
DISL,ioos:station:DISL:MBLA:1,2014-10-03T12:30:00Z,30.4367,-88.0117,89.4,1111122 
DISL,ioos:station:DISL:MBLA:1,2014-10-03T13:00:00Z,30.4367,-88.0117,98.8,1111122 
DISL,ioos:station:DISL:MBLA:1,2014-10-03T13:30:00Z,30.4367,-88.0117,97.2,1111122 
DISL,ioos:station:DISL:MBLA:1,2014-10-03T14:00:00Z,30.4367,-88.0117,96.7,1111122 
DISL,ioos:station:DISL:MBLA:1,2014-10-03T14:30:00Z,30.4367,-88.0117,95.1,1111122 
DISL,ioos:station:DISL:MBLA:1,2014-10-03T15:00:00Z,30.4367,-88.0117,92.5,1111122 
DISL,ioos:station:DISL:MBLA:1,2014-10-03T15:30:00Z,30.4367,-88.0117,88.1,1111122 
DISL,ioos:station:DISL:MBLA:1,2014-10-03T16:00:00Z,30.4367,-88.0117,81.9,1111122 
DISL,ioos:station:DISL:MBLA:1,2014-10-03T16:30:00Z,30.4367,-88.0117,76.98,1111122 
DISL,ioos:station:DISL:MBLA:1,2014-10-03T17:00:00Z,30.4367,-88.0117,76.77,1111122 
DISL,ioos:station:DISL:MBLA:1,2014-10-03T17:30:00Z,30.4367,-88.0117,79.32,1111122 
DISL,ioos:station:DISL:MBLA:1,2014-10-03T18:00:00Z,30.4367,-88.0117,77.52,1111122 
DISL,ioos:station:DISL:MBLA:1,2014-10-03T18:30:00Z,30.4367,-88.0117,74.63,1111122 
DISL,ioos:station:DISL:MBLA:1,2014-10-03T19:00:00Z,30.4367,-88.0117,74.15,1111122 
DISL,ioos:station:DISL:MBLA:1,2014-10-03T19:30:00Z,30.4367,-88.0117,72.38,1111122 
DISL,ioos:station:DISL:MBLA:1,2014-10-03T20:00:00Z,30.4367,-88.0117,66.96,1111122 
DISL,ioos:station:DISL:MBLA:1,2014-10-03T20:30:00Z,30.4367,-88.0117,72.28,1111122 
DISL,ioos:station:DISL:MBLA:1,2014-10-03T21:00:00Z,30.4367,-88.0117,69.5,1111122 
DISL,ioos:station:DISL:MBLA:1,2014-10-03T21:30:00Z,30.4367,-88.0117,68.82,1111122 
DISL,ioos:station:DISL:MBLA:1,2014-10-03T22:00:00Z,30.4367,-88.0117,66.89,1111122 
DISL,ioos:station:DISL:MBLA:1,2014-10-03T22:30:00Z,30.4367,-88.0117,66.99,1111122 
DISL,ioos:station:DISL:MBLA:1,2014-10-03T23:00:00Z,30.4367,-88.0117,69.98,1111122 
DISL,ioos:station:DISL:MBLA:1,2014-10-03T23:30:00Z,30.4367,-88.0117,68.28,1111122 
DISL,ioos:station:DISL:MBLA:1,2014-10-04T00:00:00Z,30.4367,-88.0117,72.6,1111122 
DISL,ioos:station:DISL:MBLA:1,2014-10-04T00:30:00Z,30.4367,-88.0117,72.64,1111122 
DISL,ioos:station:DISL:MBLA:1,2014-10-04T01:00:00Z,30.4367,-88.0117,73.42,1111122 
DISL,ioos:station:DISL:MBLA:1,2014-10-04T01:30:00Z,30.4367,-88.0117,74.44,1111122 
DISL,ioos:station:DISL:MBLA:1,2014-10-04T02:00:00Z,30.4367,-88.0117,75.39,1111122 
DISL,ioos:station:DISL:MBLA:1,2014-10-04T02:30:00Z,30.4367,-88.0117,76.4,1111122 
DISL,ioos:station:DISL:MBLA:1,2014-10-04T03:00:00Z,30.4367,-88.0117,79.15,1111122 
DISL,ioos:station:DISL:MBLA:1,2014-10-04T03:30:00Z,30.4367,-88.0117,78.47,1111122 
DISL,ioos:station:DISL:MBLA:1,2014-10-04T04:00:00Z,30.4367,-88.0117,80.0,1111122 
DISL,ioos:station:DISL:MBLA:1,2014-10-04T04:30:00Z,30.4367,-88.0117,71.53,1111122 
DISL,ioos:station:DISL:MBLA:1,2014-10-04T05:00:00Z,30.4367,-88.0117,70.12,1111122 
DISL,ioos:station:DISL:MBLA:1,2014-10-04T05:30:00Z,30.4367,-88.0117,69.17,1111122 
DISL,ioos:station:DISL:MBLA:1,2014-10-04T06:00:00Z,30.4367,-88.0117,69.01,1111122 
DISL,ioos:station:DISL:MBLA:1,2014-10-04T06:30:00Z,30.4367,-88.0117,70.39,1111122 
DISL,ioos:station:DISL:MBLA:1,2014-10-04T07:00:00Z,30.4367,-88.0117,68.87,1111122 
DISL,ioos:station:DISL:MBLA:1,2014-10-04T07:30:00Z,30.4367,-88.0117,72.46,1111122 
DISL,ioos:station:DISL:MBLA:1,2014-10-04T08:00:00Z,30.4367,-88.0117,76.19,1111122 
DISL,ioos:station:DISL:MBLA:1,2014-10-04T08:30:00Z,30.4367,-88.0117,74.26,1111122 
DISL,ioos:station:DISL:MBLA:1,2014-10-04T09:00:00Z,30.4367,-88.0117,75.58,1111122 
DISL,ioos:station:DISL:MBLA:1,2014-10-04T09:30:00Z,30.4367,-88.0117,76.36,1111122 
DISL,ioos:station:DISL:MBLA:1,2014-10-04T10:00:00Z,30.4367,-88.0117,76.98,1111122 
DISL,ioos:station:DISL:MBLA:1,2014-10-04T10:30:00Z,30.4367,-88.0117,75.87,1111122 
DISL,ioos:station:DISL:MBLA:1,2014-10-04T11:00:00Z,30.4367,-88.0117,76.82,1111122 
DISL,ioos:station:DISL:MBLA:1,2014-10-04T11:30:00Z,30.4367,-88.0117,76.89,1111122 
DISL,ioos:station:DISL:MBLA:1,2014-10-04T12:00:00Z,30.4367,-88.0117,76.62,1111122 
DISL,ioos:station:DISL:MBLA:1,2014-10-04T12:30:00Z,30.4367,-88.0117,73.67,1111122 
DISL,ioos:station:DISL:MBLA:1,2014-10-04T13:00:00Z,30.4367,-88.0117,76.45,1111122 
DISL,ioos:station:DISL:MBLA:1,2014-10-04T13:30:00Z,30.4367,-88.0117,74.62,1111122 
DISL,ioos:station:DISL:MBLA:1,2014-10-04T14:00:00Z,30.4367,-88.0117,73.44,1111122 
DISL,ioos:station:DISL:MBLA:1,2014-10-04T14:30:00Z,30.4367,-88.0117,68.15,1111122 
DISL,ioos:station:DISL:MBLA:1,2014-10-04T15:00:00Z,30.4367,-88.0117,67.54,1111122 
DISL,ioos:station:DISL:MBLA:1,2014-10-04T15:30:00Z,30.4367,-88.0117,62.79,1111122 
DISL,ioos:station:DISL:MBLA:1,2014-10-04T16:00:00Z,30.4367,-88.0117,55.23,1111122 
DISL,ioos:station:DISL:MBLA:1,2014-10-04T16:30:00Z,30.4367,-88.0117,51.16,1111122 
DISL,ioos:station:DISL:MBLA:1,2014-10-04T17:00:00Z,30.4367,-88.0117,42.58,1111122 
DISL,ioos:station:DISL:MBLA:1,2014-10-04T17:30:00Z,30.4367,-88.0117,44.31,1111122 
DISL,ioos:station:DISL:MBLA:1,2014-10-04T18:00:00Z,30.4367,-88.0117,38.61,1111122 
DISL,ioos:station:DISL:MBLA:1,2014-10-04T18:30:00Z,30.4367,-88.0117,37.45,1111122 
DISL,ioos:station:DISL:MBLA:1,2014-10-04T19:00:00Z,30.4367,-88.0117,43.08,1111122 
DISL,ioos:station:DISL:MBLA:1,2014-10-04T19:30:00Z,30.4367,-88.0117,33.89,1111122 
DISL,ioos:station:DISL:MBLA:1,2014-10-04T20:00:00Z,30.4367,-88.0117,33.08,1111122 
DISL,ioos:station:DISL:MBLA:1,2014-10-04T20:30:00Z,30.4367,-88.0117,34.27,1111122 
DISL,ioos:station:DISL:MBLA:1,2014-10-04T21:00:00Z,30.4367,-88.0117,33.82,1111122 
DISL,ioos:station:DISL:MBLA:1,2014-10-04T21:30:00Z,30.4367,-88.0117,30.87,1111122 
DISL,ioos:station:DISL:MBLA:1,2014-10-04T22:00:00Z,30.4367,-88.0117,28.9,1111122 
DISL,ioos:station:DISL:MBLA:1,2014-10-04T22:30:00Z,30.4367,-88.0117,30.5,1111122 
DISL,ioos:station:DISL:MBLA:1,2014-10-04T23:00:00Z,30.4367,-88.0117,40.23,1111122 
DISL,ioos:station:DISL:MBLA:1,2014-10-04T23:30:00Z,30.4367,-88.0117,31.79,1111122 
DISL,ioos:station:DISL:MBLA:1,2014-10-05T00:00:00Z,30.4367,-88.0117,32.74,1111122 
DISL,ioos:station:DISL:MBLA:1,2014-10-05T00:30:00Z,30.4367,-88.0117,36.77,1111122 
DISL,ioos:station:DISL:MBLA:1,2014-10-05T01:00:00Z,30.4367,-88.0117,39.09,1111122 
DISL,ioos:station:DISL:MBLA:1,2014-10-05T01:30:00Z,30.4367,-88.0117,32.68,1111122 
DISL,ioos:station:DISL:MBLA:1,2014-10-05T02:00:00Z,30.4367,-88.0117,44.07,1111122 
DISL,ioos:station:DISL:MBLA:1,2014-10-05T02:30:00Z,30.4367,-88.0117,44.11,1111122 
DISL,ioos:station:DISL:MBLA:1,2014-10-05T03:00:00Z,30.4367,-88.0117,47.64,1111122 
DISL,ioos:station:DISL:MBLA:1,2014-10-05T03:30:00Z,30.4367,-88.0117,40.68,1111122 
DISL,ioos:station:DISL:MBLA:1,2014-10-05T04:00:00Z,30.4367,-88.0117,45.23,1111122 
DISL,ioos:station:DISL:MBLA:1,2014-10-05T04:30:00Z,30.4367,-88.0117,48.01,1111122 
DISL,ioos:station:DISL:MBLA:1,2014-10-05T05:00:00Z,30.4367,-88.0117,39.87,1111122 
DISL,ioos:station:DISL:MBLA:1,2014-10-05T05:30:00Z,30.4367,-88.0117,40.11,1111122 
DISL,ioos:station:DISL:MBLA:1,2014-10-05T06:00:00Z,30.4367,-88.0117,41.09,1111122 
DISL,ioos:station:DISL:MBLA:1,2014-10-05T06:30:00Z,30.4367,-88.0117,42.96,1111122 
DISL,ioos:station:DISL:MBLA:1,2014-10-05T07:00:00Z,30.4367,-88.0117,46.92,1111122 
DISL,ioos:station:DISL:MBLA:1,2014-10-05T07:30:00Z,30.4367,-88.0117,50.21,1111122 
DISL,ioos:station:DISL:MBLA:1,2014-10-05T08:00:00Z,30.4367,-88.0117,48.05,1111122 
DISL,ioos:station:DISL:MBLA:1,2014-10-05T08:30:00Z,30.4367,-88.0117,53.74,1111122 
DISL,ioos:station:DISL:MBLA:1,2014-10-05T09:00:00Z,30.4367,-88.0117,50.39,1111122 
DISL,ioos:station:DISL:MBLA:1,2014-10-05T09:30:00Z,30.4367,-88.0117,52.63,1111122 
DISL,ioos:station:DISL:MBLA:1,2014-10-05T10:00:00Z,30.4367,-88.0117,57.81,1111122 
DISL,ioos:station:DISL:MBLA:1,2014-10-05T10:30:00Z,30.4367,-88.0117,61.0,1111122 
DISL,ioos:station:DISL:MBLA:1,2014-10-05T11:00:00Z,30.4367,-88.0117,60.83,1111122 
DISL,ioos:station:DISL:MBLA:1,2014-10-05T11:30:00Z,30.4367,-88.0117,56.97,1111122 
DISL,ioos:station:DISL:MBLA:1,2014-10-05T12:00:00Z,30.4367,-88.0117,53.14,1111122 
DISL,ioos:station:DISL:MBLA:1,2014-10-05T12:30:00Z,30.4367,-88.0117,49.68,1111122 
DISL,ioos:station:DISL:MBLA:1,2014-10-05T13:00:00Z,30.4367,-88.0117,42.18,1111122 
DISL,ioos:station:DISL:MBLA:1,2014-10-05T13:30:00Z,30.4367,-88.0117,48.82,1111122 
DISL,ioos:station:DISL:MBLA:1,2014-10-05T14:00:00Z,30.4367,-88.0117,41.06,1111122 
DISL,ioos:station:DISL:MBLA:1,2014-10-05T14:30:00Z,30.4367,-88.0117,32.85,1111122 
DISL,ioos:station:DISL:MBLA:1,2014-10-05T15:00:00Z,30.4367,-88.0117,39.82,1111122 
DISL,ioos:station:DISL:MBLA:1,2014-10-05T15:30:00Z,30.4367,-88.0117,37.08,1111122 
DISL,ioos:station:DISL:MBLA:1,2014-10-05T16:00:00Z,30.4367,-88.0117,31.45,1111122 
DISL,ioos:station:DISL:MBLA:1,2014-10-05T16:30:00Z,30.4367,-88.0117,34.94,1111122 
DISL,ioos:station:DISL:MBLA:1,2014-10-05T17:00:00Z,30.4367,-88.0117,36.13,1111122 
DISL,ioos:station:DISL:MBLA:1,2014-10-05T17:30:00Z,30.4367,-88.0117,35.15,1111122 
DISL,ioos:station:DISL:MBLA:1,2014-10-05T18:00:00Z,30.4367,-88.0117,35.42,1111122 
DISL,ioos:station:DISL:MBLA:1,2014-10-05T18:30:00Z,30.4367,-88.0117,35.18,1111122 
DISL,ioos:station:DISL:MBLA:1,2014-10-05T19:00:00Z,30.4367,-88.0117,39.24,1111122 
DISL,ioos:station:DISL:MBLA:1,2014-10-05T19:30:00Z,30.4367,-88.0117,41.23,1111122 
DISL,ioos:station:DISL:MBLA:1,2014-10-05T20:00:00Z,30.4367,-88.0117,37.61,1111122 
DISL,ioos:station:DISL:MBLA:1,2014-10-05T20:30:00Z,30.4367,-88.0117,45.27,1111122 
DISL,ioos:station:DISL:MBLA:1,2014-10-05T21:00:00Z,30.4367,-88.0117,38.12,1111122 
DISL,ioos:station:DISL:MBLA:1,2014-10-05T21:30:00Z,30.4367,-88.0117,39.57,1111122 
DISL,ioos:station:DISL:MBLA:1,2014-10-05T22:00:00Z,30.4367,-88.0117,41.81,1111122 
DISL,ioos:station:DISL:MBLA:1,2014-10-05T22:30:00Z,30.4367,-88.0117,41.98,1111122 
DISL,ioos:station:DISL:MBLA:1,2014-10-05T23:00:00Z,30.4367,-88.0117,44.18,1111122 
DISL,ioos:station:DISL:MBLA:1,2014-10-05T23:30:00Z,30.4367,-88.0117,45.2,1111122 
DISL,ioos:station:DISL:MBLA:1,2014-10-06T00:00:00Z,30.4367,-88.0117,48.83,1111122 
DISL,ioos:station:DISL:MBLA:1,2014-10-06T00:30:00Z,30.4367,-88.0117,51.48,1111122 
DISL,ioos:station:DISL:MBLA:1,2014-10-06T01:00:00Z,30.4367,-88.0117,51.01,1111122 
DISL,ioos:station:DISL:MBLA:1,2014-10-06T01:30:00Z,30.4367,-88.0117,54.67,1111122 
DISL,ioos:station:DISL:MBLA:1,2014-10-06T02:00:00Z,30.4367,-88.0117,51.04,1111122 
DISL,ioos:station:DISL:MBLA:1,2014-10-06T02:30:00Z,30.4367,-88.0117,53.82,1111122 
DISL,ioos:station:DISL:MBLA:1,2014-10-06T03:00:00Z,30.4367,-88.0117,55.21,1111122 
DISL,ioos:station:DISL:MBLA:1,2014-10-06T03:30:00Z,30.4367,-88.0117,55.35,1111122 
DISL,ioos:station:DISL:MBLA:1,2014-10-06T04:00:00Z,30.4367,-88.0117,60.16,1111122 
DISL,ioos:station:DISL:MBLA:1,2014-10-06T04:30:00Z,30.4367,-88.0117,55.75,1111122 
DISL,ioos:station:DISL:MBLA:1,2014-10-06T05:00:00Z,30.4367,-88.0117,54.77,1111122 
DISL,ioos:station:DISL:MBLA:1,2014-10-06T05:30:00Z,30.4367,-88.0117,60.87,1111122 
DISL,ioos:station:DISL:MBLA:1,2014-10-06T06:00:00Z,30.4367,-88.0117,61.79,1111122 
DISL,ioos:station:DISL:MBLA:1,2014-10-06T06:30:00Z,30.4367,-88.0117,61.75,1111122 
DISL,ioos:station:DISL:MBLA:1,2014-10-06T07:00:00Z,30.4367,-88.0117,58.23,1111122 
DISL,ioos:station:DISL:MBLA:1,2014-10-06T07:30:00Z,30.4367,-88.0117,58.02,1111122 
DISL,ioos:station:DISL:MBLA:1,2014-10-06T08:00:00Z,30.4367,-88.0117,58.26,1111122 
DISL,ioos:station:DISL:MBLA:1,2014-10-06T08:30:00Z,30.4367,-88.0117,58.09,1111122 
DISL,ioos:station:DISL:MBLA:1,2014-10-06T09:00:00Z,30.4367,-88.0117,63.79,1111122 
DISL,ioos:station:DISL:MBLA:1,2014-10-06T09:30:00Z,30.4367,-88.0117,59.38,1111122 
DISL,ioos:station:DISL:MBLA:1,2014-10-06T10:00:00Z,30.4367,-88.0117,56.09,1111122 
DISL,ioos:station:DISL:MBLA:1,2014-10-06T10:30:00Z,30.4367,-88.0117,59.07,1111122 
DISL,ioos:station:DISL:MBLA:1,2014-10-06T11:00:00Z,30.4367,-88.0117,59.89,1111122 
DISL,ioos:station:DISL:MBLA:1,2014-10-06T11:30:00Z,30.4367,-88.0117,58.84,1111122 
DISL,ioos:station:DISL:MBLA:1,2014-10-06T12:00:00Z,30.4367,-88.0117,57.69,1111122 
DISL,ioos:station:DISL:MBLA:1,2014-10-06T12:30:00Z,30.4367,-88.0117,57.65,1111122 
DISL,ioos:station:DISL:MBLA:1,2014-10-06T13:00:00Z,30.4367,-88.0117,60.62,1111122 
DISL,ioos:station:DISL:MBLA:1,2014-10-06T13:30:00Z,30.4367,-88.0117,61.19,1111122 
DISL,ioos:station:DISL:MBLA:1,2014-10-06T14:00:00Z,30.4367,-88.0117,62.1,1111122 
DISL,ioos:station:DISL:MBLA:1,2014-10-06T14:30:00Z,30.4367,-88.0117,63.09,1111122 
DISL,ioos:station:DISL:MBLA:1,2014-10-06T15:00:00Z,30.4367,-88.0117,59.8,1111122 
DISL,ioos:station:DISL:MBLA:1,2014-10-06T15:30:00Z,30.4367,-88.0117,63.32,1111122 
DISL,ioos:station:DISL:MBLA:1,2014-10-06T16:00:00Z,30.4367,-88.0117,60.95,1111122 
DISL,ioos:station:DISL:MBLA:1,2014-10-06T16:30:00Z,30.4367,-88.0117,64.27,1111122 
DISL,ioos:station:DISL:MBLA:1,2014-10-06T17:00:00Z,30.4367,-88.0117,58.48,1111122 
DISL,ioos:station:DISL:MBLA:1,2014-10-06T17:30:00Z,30.4367,-88.0117,61.05,1111122 
DISL,ioos:station:DISL:MBLA:1,2014-10-06T18:00:00Z,30.4367,-88.0117,57.33,1111122 
DISL,ioos:station:DISL:MBLA:1,2014-10-06T18:30:00Z,30.4367,-88.0117,55.26,1111122 
DISL,ioos:station:DISL:MBLA:1,2014-10-06T19:00:00Z,30.4367,-88.0117,55.92,1111122 
DISL,ioos:station:DISL:MBLA:1,2014-10-06T19:30:00Z,30.4367,-88.0117,56.39,1111122 
DISL,ioos:station:DISL:MBLA:1,2014-10-06T20:00:00Z,30.4367,-88.0117,57.82,1111122 
DISL,ioos:station:DISL:MBLA:1,2014-10-06T20:30:00Z,30.4367,-88.0117,60.42,1111122 
DISL,ioos:station:DISL:MBLA:1,2014-10-06T21:00:00Z,30.4367,-88.0117,58.49,1111122 
DISL,ioos:station:DISL:MBLA:1,2014-10-06T21:30:00Z,30.4367,-88.0117,56.87,1111122 
DISL,ioos:station:DISL:MBLA:1,2014-10-06T22:00:00Z,30.4367,-88.0117,61.98,1111122 
DISL,ioos:station:DISL:MBLA:1,2014-10-06T22:30:00Z,30.4367,-88.0117,62.46,1111122 
DISL,ioos:station:DISL:MBLA:1,2014-10-06T23:00:00Z,30.4367,-88.0117,61.39,1111122 
DISL,ioos:station:DISL:MBLA:1,2014-10-06T23:30:00Z,30.4367,-88.0117,62.78,1111122 
DISL,ioos:station:DISL:MBLA:1,2014-10-07T00:00:00Z,30.4367,-88.0117,66.0,1111122 